Flag for Germany Weather past 2 weeks in Osterholz-Scharmbeck, Lower Saxony, Germany

Now
62 °F

Fog.


Feels Like: 62 °F
Forecast: 54 / 69 °F
Wind: 1 mph from South

Location: Bremen

Current Time: Oct 2, 2014 at 1:04:40 PM

Latest Report: Oct 2, 2014 at 12:00 PM


Visibility: 3 mi

Pressure: 30.39 "Hg

Humidity: 85%

Dew point: 58 °F

Location of Osterholz-ScharmbeckLocation

Historic Weather in Osterholz-Scharmbeck — Graph

°F

Osterholz-Scharmbeck temperature yesterday

Maximum temperature yesterday: 69 °F (at 4:00 PM)
Minimum temperature yesterday: 52 °F (at 4:00 AM)
Average temperature yesterday: 59 °F

Past Weeks' High & Low Weather Summary

 TemperatureHumidityPressure
High77 °F (Sep 18, 4:00 PM)100% (Sep 27, 6:00 AM)30.39 "Hg (Sep 27, 6:00 AM)
Low43 °F (Sep 23, 8:00 AM)45% (Sep 27, 4:00 PM)29.78 "Hg (Sep 24, 5:00 PM)
Average60 °F81%30.08 "Hg
* Reported Sep 17 12:00 Noon — Oct 2 12:00 Noon, Osterholz-Scharmbeck, Weather by CustomWeather, © 2014

Note: Actual official high and low records may vary slightly from our data, if they occured in-between our weather recording intervals... More about our weather records

Advertising

Osterholz-Scharmbeck weather history for previous 24 hours

 ConditionsComfort  
Time TempWeatherWind HumidityBarometerVisibility
12:00 PM
Oct 2
62 °FFog.1 mph85%30.39 "Hg3 mi
11:00 AM61 °FFog.1 mph91%30.39 "Hg2 mi
10:00 AM60 °FLow clouds.1 mph93%30.39 "Hg2 mi
9:00 AM59 °FFog.1 mph92%30.38 "Hg2 mi
8:00 AM58 °FLow clouds.2 mph96%30.37 "Hg2 mi
7:00 AM58 °FRain. Overcast.1 mph94%30.36 "Hg1 mi
6:00 AM58 °FOvercast.1 mph94%30.35 "Hg2 mi
5:00 AM58 °FFog.1 mph93%30.35 "Hg2 mi
4:00 AM58 °FOvercast.2 mph94%30.35 "Hg2 mi
3:00 AM57 °FFog.1 mph94%30.35 "Hg2 mi
2:00 AM58 °FFog.2 mph94%30.34 "Hg2 mi
1:00 AM58 °FOvercast.1 mph94%30.34 "Hg2 mi
12:00 AM57 °FFog.1 mph93%30.34 "Hg3 mi
10:00 PM
Oct 1
60 °FCool.2 mph88%30.32 "HgN/A
9:00 PM59 °FFog.2 mph88%30.32 "Hg4 mi
8:00 PM59 °FPassing clouds.3 mph86%30.31 "Hg5 mi
7:00 PM62 °FPartly sunny.3 mph80%30.30 "Hg6 mi
6:00 PM68 °FPartly sunny.2 mph67%30.29 "Hg9 mi
4:00 PM69 °FScattered clouds.2 mph65%30.28 "Hg7 mi
3:00 PM67 °FScattered clouds.2 mph72%30.29 "Hg6 mi
2:00 PM66 °FPartly sunny.1 mph73%30.30 "Hg6 mi
1:00 PM65 °FOvercast.2 mph74%30.30 "Hg7 mi
Weather by CustomWeather, © 2014

See weather overviewHow to use our weather pages